Weather History for Cape Girardeau, MO

Change the Weather History Date:

Monday, December 24, 2012

  Actual Average Record
Temperature  
Mean Temperature 40 °F 34 °F  
Max Temperature 50 °F 43 °F 65 °F (1982)
Min Temperature 29 °F 25 °F -10 °F (1963)
Degree Days  
Heating Degree Days 25 31  
Month to date heating degree days 439 680  
Since 1 July heating degree days 1378 1531  
Cooling Degree Days 0 0  
Month to date cooling degree days 0 0  
Year to date cooling degree days 1784 1453  
Moisture  
Dew Point 39 °F    
Average Humidity 77    
Maximum Humidity 100    
Minimum Humidity 53    
Precipitation  
Precipitation 0.00 in 0.13 in 3.92 in (1982)
Month to date precipitation 1.26 3.38  
Year to date precipitation 26.54 45.94  
Sea Level Pressure  
Sea Level Pressure 29.90 in    
Wind  
Wind Speed 9 mph (North)    
Max Wind Speed 17 mph    
Max Gust Speed 22 mph    
Visibility 4 miles    
Events Fog    
T = Trace of Precipitation, MM = Missing Value Source: NWS Daily Summary

Daily Weather History Graph

Daily Weather History Graph

Search for Another Location

Airport:

Trip Planner

Search our weather history database for the weather conditions in past years. The results will help you decide how hot, cold, wet, or windy it might be!

Date:

Astronomy

Dec. 24, 2012 Rise Set
Actual Time 7:10 AM CST 4:46 PM CST
Civil Twilight 6:40 AM CST 5:15 PM CST
Nautical Twilight 6:08 AM CST 5:48 PM CST
Astronomical Twilight 5:36 AM CST 6:19 PM CST
Moon 2:12 PM CST (12/24) 3:50 AM CST (12/24)
Length of Visible Light 10h 34m
Length of Day
9h 36m
Waxing Gibbous, 88% of the Moon is Illuminated
Dec 24
Waxing Gibbous
Dec 28
Full
Jan 4
Last Quarter
Jan 11
New
Jan 18
First Quarter

Hourly Weather History & Observations

Time (CST) Temp. Windchill Dew Point Humidity Pressure Visibility Wind Dir Wind Speed Gust Speed Precip Events Conditions
12:39 AM 50.0 °F - 48.2 °F 94% 29.82 in 4.0 mi Calm Calm - N/A   Overcast
12:53 AM 50.0 °F - 48.0 °F 93% 29.83 in 3.0 mi Calm Calm - N/A   Overcast
1:00 AM 48.2 °F - 46.4 °F 93% 29.83 in 1.8 mi Calm Calm - N/A   Overcast
1:10 AM 48.2 °F - 48.2 °F 100% 29.82 in 0.5 mi Calm Calm - N/A Fog Fog
1:18 AM 48.2 °F - 48.2 °F 100% 29.82 in 0.2 mi Calm Calm - N/A Fog Fog
1:53 AM 48.9 °F - 48.0 °F 97% 29.80 in 0.2 mi Calm Calm - N/A Fog Fog
2:53 AM 48.0 °F - 48.0 °F 100% 29.80 in 0.2 mi Calm Calm - N/A Fog Fog
3:53 AM 48.0 °F - 48.0 °F 100% 29.78 in 0.2 mi Calm Calm - N/A Fog Fog
4:35 AM 48.2 °F - 46.4 °F 93% 29.78 in 0.5 mi Calm Calm - N/A Fog Fog
4:53 AM 48.0 °F - 48.0 °F 100% 29.78 in 0.5 mi Calm Calm - N/A Fog Fog
5:29 AM 48.2 °F - 46.4 °F 93% 29.78 in 0.2 mi Calm Calm - N/A Fog Fog
5:53 AM 48.0 °F - 46.9 °F 96% 29.80 in 0.5 mi Calm Calm - N/A Fog Fog
6:02 AM 48.2 °F - 48.2 °F 100% 29.80 in 0.2 mi Calm Calm - N/A Fog Fog
6:21 AM 48.2 °F - 46.4 °F 93% 29.81 in 0.8 mi NW 3.5 mph - N/A   Overcast
6:30 AM 48.2 °F - 46.4 °F 93% 29.81 in 1.2 mi WNW 4.6 mph - N/A   Overcast
6:41 AM 48.2 °F - 48.2 °F 100% 29.82 in 3.0 mi WNW 6.9 mph - N/A   Overcast
6:53 AM 48.9 °F - 48.0 °F 97% 29.83 in 2.5 mi NW 9.2 mph - N/A   Overcast
7:11 AM 48.2 °F - 48.2 °F 100% 29.83 in 4.0 mi Calm Calm - N/A   Overcast
7:53 AM 44.1 °F 37.1 °F 42.1 °F 93% 29.87 in 3.0 mi NNW 15.0 mph - N/A   Overcast
8:06 AM 41.0 °F 33.1 °F 39.2 °F 93% 29.89 in 4.0 mi NNW 15.0 mph - N/A   Overcast
8:25 AM 41.0 °F 34.7 °F 39.2 °F 93% 29.91 in 5.0 mi NNW 10.4 mph - N/A   Overcast
8:53 AM 39.9 °F 32.5 °F 37.0 °F 89% 29.92 in 6.0 mi NNW 12.7 mph - N/A   Overcast
10:53 AM 45.0 °F 39.7 °F 33.1 °F 63% 29.94 in 10.0 mi North 10.4 mph - N/A   Clear
11:53 AM 46.0 °F 40.2 °F 33.1 °F 61% 29.92 in 10.0 mi NNW 12.7 mph 16.1 mph N/A   Clear
12:53 PM 46.9 °F - 32.0 °F 56% 29.91 in 10.0 mi NNW 10.4 mph 18.4 mph N/A   Clear
1:53 PM 46.9 °F - 30.0 °F 52% 29.89 in 10.0 mi North 10.4 mph - N/A   Clear
2:53 PM 43.0 °F 37.2 °F 30.0 °F 60% 29.93 in 9.0 mi North 10.4 mph - N/A   Clear
3:53 PM 41.0 °F 33.9 °F 28.9 °F 62% 29.95 in 9.0 mi NNE 12.7 mph - N/A   Clear
4:53 PM 37.0 °F 29.8 °F 28.9 °F 73% 29.98 in 7.0 mi NNE 10.4 mph - N/A   Clear
5:53 PM 34.0 °F 27.2 °F 27.0 °F 75% 30.00 in 8.0 mi NNE 8.1 mph - N/A   Clear
6:53 PM 32.0 °F 24.2 °F 27.0 °F 82% 30.05 in 6.0 mi NNE 9.2 mph - N/A   Haze
7:25 PM 32.0 °F 23.6 °F 26.6 °F 80% 30.06 in 6.0 mi North 10.4 mph - N/A   Haze
7:53 PM 30.9 °F 20.7 °F 25.0 °F 79% 30.07 in 6.0 mi North 13.8 mph - N/A   Haze
8:53 PM 30.0 °F 20.0 °F 24.1 °F 79% 30.08 in 6.0 mi North 12.7 mph - N/A   Haze
9:53 PM 30.0 °F 20.0 °F 24.1 °F 79% 30.10 in 6.0 mi North 12.7 mph - N/A   Haze
10:53 PM 30.0 °F 19.5 °F 23.0 °F 75% 30.11 in 6.0 mi NNE 13.8 mph - N/A   Haze
11:53 PM 28.9 °F 19.2 °F 23.0 °F 78% 30.11 in 6.0 mi NNE 11.5 mph - N/A   Haze